Location: Unspecified
(0.0000°N, 0.0000°E)
Time: 18:12:06
(UTC+00:00)

Envisat - Pass Details

Date: 15 February 2019
Orbit: 764 x 766 km, 98.1° (Epoch: 18 August)

Event Time Altitude Azimuth Distance (km) Brightness Sun altitude
Rises 20:03:43 0° 197° (SSW) 3,228 6.6 -26.7°
Reaches altitude 10° 20:06:41 10° 215° (SW) 2,300 6.0 -27.4°
Maximum altitude 20:10:06 18° 258° (WSW) 1,786 5.7 -28.2°
Drops below altitude 10° 20:13:31 10° 301° (WNW) 2,294 6.0 -29.1°
Sets 20:16:30 0° 319° (NW) 3,217 6.6 -29.8°
